McHenry, MD

2:47 AM EST on February 23, 2017 (GMT -0500)
Oakland

Weather History for K2G4 - November, 2012

Change the Weather History Date:

Wednesday, November 14, 2012

  Actual Average (KMGW) Record (KMGW)
Temperature  
Mean Temperature 30 °F -  
Max Temperature 33 °F 52 °F 78 °F (1993)
Min Temperature 26 °F 34 °F 10 °F (1986)
Degree Days  
Heating Degree Days 36    
Moisture  
Dew Point 24 °F    
Average Humidity 82    
Maximum Humidity 86    
Minimum Humidity 70    
Precipitation  
Precipitation 0.00 in - - ()
Sea Level Pressure  
Sea Level Pressure 30.38 in    
Wind  
Wind Speed 5 mph (ESE)    
Max Wind Speed 15 mph    
Max Gust Speed 22 mph    
Visibility 10 miles    
Events      
Averages and records for this station are not official NWS values.
T = Trace of Precipitation, MM = Missing Value Source: NWS Daily Summary

Daily Weather History Graph

Daily Weather History Graph

Search for Another Location

Airport or City:

Trip Planner

Search our weather history database for the weather conditions in past years. The results will help you decide how hot, cold, wet, or windy it might be!

Date:

Astronomy

Nov. 14, 2012 Rise Set
Actual Time 7:00 AM EST 5:02 PM EST
Civil Twilight 6:32 AM EST 5:31 PM EST
Nautical Twilight 5:59 AM EST 6:03 PM EST
Astronomical Twilight 5:27 AM EST 6:35 PM EST
Moon 7:48 AM EST (11/14) 5:49 PM EST (11/14)
Length of Visible Light 10h 58m
Length of Day
10h 01m
New Moon, 1% of the Moon is Illuminated
Nov 14
New Moon
Nov 20
First Quarter
Nov 28
Full
Dec 6
Last Quarter
Dec 13
New

Hourly Weather History & Observations

Time (EST) Temp. Windchill Dew Point Humidity Pressure Visibility Wind Dir Wind Speed Gust Speed Precip Events Conditions
12:10 AM 26.6 °F - 21.2 °F 80% 30.41 in 10.0 mi Calm Calm - N/A   Overcast
12:30 AM 26.6 °F - 21.2 °F 80% 30.41 in 10.0 mi Calm Calm - N/A   Overcast
12:50 AM 26.6 °F 22.6 °F 21.2 °F 80% 30.40 in 10.0 mi NW 3.5 mph - N/A   Overcast
1:10 AM 26.6 °F 22.6 °F 21.2 °F 80% 30.40 in 10.0 mi NNW 3.5 mph - N/A   Overcast
1:35 AM 26.6 °F 22.6 °F 21.2 °F 80% 30.40 in 10.0 mi North 3.5 mph - N/A   Overcast
1:55 AM 26.6 °F - 21.2 °F 80% 30.40 in 10.0 mi Calm Calm - N/A   Overcast
2:15 AM 26.6 °F 22.6 °F 21.2 °F 80% 30.40 in 10.0 mi North 3.5 mph - N/A   Overcast
2:35 AM 26.6 °F - 21.2 °F 80% 30.40 in 10.0 mi Calm Calm - N/A   Overcast
3:00 AM 26.6 °F 22.6 °F 23.0 °F 86% 30.40 in 10.0 mi North 3.5 mph - N/A   Overcast
3:20 AM 26.6 °F 22.6 °F 23.0 °F 86% 30.39 in 10.0 mi NNE 3.5 mph - N/A   Overcast
3:40 AM 26.6 °F - 23.0 °F 86% 30.40 in 10.0 mi Calm Calm - N/A   Overcast
4:00 AM 26.6 °F 22.6 °F 23.0 °F 86% 30.39 in 10.0 mi North 3.5 mph - N/A   Overcast
4:25 AM 26.6 °F 22.6 °F 23.0 °F 86% 30.39 in 10.0 mi ENE 3.5 mph - N/A   Overcast
5:50 AM 26.6 °F - 23.0 °F 86% 30.42 in 10.0 mi Calm Calm - N/A   Overcast
6:10 AM 26.6 °F - 23.0 °F 86% 30.41 in 10.0 mi Calm Calm - N/A   Overcast
6:30 AM 26.6 °F 22.6 °F 23.0 °F 86% 30.42 in 10.0 mi East 3.5 mph - N/A   Overcast
6:50 AM 26.6 °F 20.0 °F 23.0 °F 86% 30.42 in 10.0 mi East 5.8 mph - N/A   Overcast
7:15 AM 26.6 °F 19.1 °F 23.0 °F 86% 30.42 in 10.0 mi ESE 6.9 mph - N/A   Overcast
7:35 AM 26.6 °F 20.0 °F 23.0 °F 86% 30.43 in 10.0 mi East 5.8 mph - N/A   Overcast
7:55 AM 26.6 °F 17.5 °F 23.0 °F 86% 30.43 in 10.0 mi East 9.2 mph - N/A   Overcast
8:15 AM 26.6 °F 18.2 °F 23.0 °F 86% 30.43 in 10.0 mi East 8.1 mph - N/A   Overcast
8:40 AM 26.6 °F 19.1 °F 23.0 °F 86% 30.43 in 10.0 mi East 6.9 mph - N/A   Overcast
9:00 AM 26.6 °F 17.5 °F 23.0 °F 86% 30.43 in 10.0 mi East 9.2 mph - N/A   Overcast
9:20 AM 26.6 °F 18.2 °F 23.0 °F 86% 30.43 in 10.0 mi East 8.1 mph - N/A   Overcast
9:40 AM 26.6 °F 19.1 °F 23.0 °F 86% 30.43 in 10.0 mi East 6.9 mph - N/A   Overcast
10:05 AM 26.6 °F 16.8 °F 23.0 °F 86% 30.43 in 10.0 mi East 10.4 mph 16.1 mph N/A   Mostly Cloudy
10:25 AM 28.4 °F 19.7 °F 24.8 °F 86% 30.42 in 10.0 mi East 9.2 mph - N/A   Overcast
10:45 AM 28.4 °F 19.7 °F 24.8 °F 86% 30.42 in 10.0 mi ESE 9.2 mph - N/A   Mostly Cloudy
11:05 AM 28.4 °F 19.7 °F 23.0 °F 80% 30.43 in 10.0 mi East 9.2 mph - N/A   Mostly Cloudy
11:30 AM 32.0 °F 24.2 °F 26.6 °F 80% 30.42 in 10.0 mi ESE 9.2 mph - N/A   Overcast
11:50 AM 30.2 °F 21.9 °F 24.8 °F 80% 30.42 in 10.0 mi ESE 9.2 mph - N/A   Mostly Cloudy
12:10 PM 30.2 °F 21.9 °F 24.8 °F 80% 30.41 in 10.0 mi ESE 9.2 mph - N/A   Scattered Clouds
12:55 PM 32.0 °F 27.5 °F 26.6 °F 80% 30.38 in 10.0 mi SE 4.6 mph - N/A   Clear
1:15 PM 32.0 °F 25.6 °F 24.8 °F 75% 30.38 in 10.0 mi ESE 6.9 mph - N/A   Clear
1:35 PM 32.0 °F 27.5 °F 24.8 °F 75% 30.37 in 10.0 mi ENE 4.6 mph - N/A   Clear
1:55 PM 33.8 °F 28.6 °F 24.8 °F 70% 30.37 in 10.0 mi East 5.8 mph - N/A   Clear
2:20 PM 33.8 °F 29.6 °F 24.8 °F 70% 30.37 in 10.0 mi SE 4.6 mph - N/A   Clear
2:40 PM 33.8 °F 27.7 °F 24.8 °F 70% 30.37 in 10.0 mi ESE 6.9 mph - N/A   Clear
3:00 PM 33.8 °F 27.7 °F 24.8 °F 70% 30.37 in 10.0 mi ESE 6.9 mph - N/A   Clear
3:20 PM 32.0 °F 26.4 °F 24.8 °F 75% 30.36 in 10.0 mi East 5.8 mph - N/A   Clear
3:45 PM 32.0 °F 26.4 °F 24.8 °F 75% 30.36 in 10.0 mi East 5.8 mph - N/A   Clear
4:05 PM 32.0 °F 26.4 °F 24.8 °F 75% 30.36 in 10.0 mi East 5.8 mph - N/A   Clear
4:45 PM 32.0 °F 26.4 °F 24.8 °F 75% 30.35 in 10.0 mi SE 5.8 mph - N/A   Clear
5:10 PM 30.2 °F 22.6 °F 24.8 °F 80% 30.34 in 10.0 mi ESE 8.1 mph - N/A   Clear
5:30 PM 30.2 °F 22.6 °F 24.8 °F 80% 30.34 in 10.0 mi ESE 8.1 mph - N/A   Clear
5:50 PM 30.2 °F 21.3 °F 24.8 °F 80% 30.33 in 10.0 mi ESE 10.4 mph - N/A   Clear
6:10 PM 28.4 °F 19.1 °F 24.8 °F 86% 30.33 in 10.0 mi ESE 10.4 mph - N/A   Clear
6:35 PM 28.4 °F 19.7 °F 24.8 °F 86% 30.34 in 10.0 mi ESE 9.2 mph - N/A   Clear
6:55 PM 28.4 °F 19.1 °F 24.8 °F 86% 30.33 in 10.0 mi ESE 10.4 mph - N/A   Clear
7:15 PM 28.4 °F 19.1 °F 24.8 °F 86% 30.33 in 10.0 mi ESE 10.4 mph - N/A   Clear
7:35 PM 28.4 °F 17.5 °F 24.8 °F 86% 30.33 in 10.0 mi SE 13.8 mph 20.7 mph N/A   Clear
8:00 PM 28.4 °F 17.5 °F 24.8 °F 86% 30.33 in 10.0 mi ESE 13.8 mph 20.7 mph N/A   Clear
8:20 PM 28.4 °F 18.5 °F 24.8 °F 86% 30.33 in 10.0 mi ESE 11.5 mph - N/A   Clear
8:40 PM 28.4 °F 18.5 °F 24.8 °F 86% 30.33 in 10.0 mi ESE 11.5 mph 16.1 mph N/A   Clear
9:00 PM 28.4 °F 19.1 °F 24.8 °F 86% 30.34 in 10.0 mi ESE 10.4 mph 16.1 mph N/A   Clear
9:25 PM 28.4 °F 19.1 °F 24.8 °F 86% 30.34 in 10.0 mi SE 10.4 mph 16.1 mph N/A   Clear
9:45 PM 28.4 °F 18.0 °F 24.8 °F 86% 30.33 in 10.0 mi SE 12.7 mph 18.4 mph N/A   Clear
10:05 PM 28.4 °F 17.5 °F 24.8 °F 86% 30.33 in 10.0 mi SE 13.8 mph 18.4 mph N/A   Clear
10:25 PM 28.4 °F 18.0 °F 24.8 °F 86% 30.33 in 10.0 mi SE 12.7 mph 18.4 mph N/A   Clear
10:50 PM 28.4 °F 18.0 °F 24.8 °F 86% 30.32 in 10.0 mi SE 12.7 mph - N/A   Clear
11:10 PM 28.4 °F 17.0 °F 24.8 °F 86% 30.32 in 10.0 mi SE 15.0 mph 19.6 mph N/A   Clear
11:50 PM 28.4 °F 17.0 °F 24.8 °F 86% 30.31 in 10.0 mi SE 15.0 mph 21.9 mph N/A   Clear